CLX7624 VHHH-ELLX

Flight info

Callsign CLX7624
Flight time N/A
Altitude 28000
Route PECAN V10 SIKOU/K0972S0840 R339 BSE A599 LINSO/N0525F280 A599 LSO A201 ANSOS/N0523F300 A201 RAJ G463 MONDA A201 LKN M890 JAL R594 SSB L626 DPN G333 MERUN R471 RK/N0513F320 G452 ZDN L125 MURPU/N0498F340 L125 BUDED L333 DASIS UR660 ERZ UW704 SONAD UL746 ODERO DCT LUGEB DCT PELUR DCT NEPOT DCT DEGET DCT ABETI DCT RENKA DCT MAMOR DCT PETIX Z744 LEPSA/N0472F240 Z104 AGBUL T894 BITBU Z110 BETEX
Aircraft B748/H-SDE3FGHIM1M2RWXY/LB1

Departure

Time 2026-05-07 12:11
Airport Hong Kong International Airport (VHHH)

Arrival

Time N/A
Airport Luxembourg-Findel International Airport (ELLX)
Time Latitude Longitude Altitude Speed Heading
2026-05-07 11:26 22.29863 113.92126 41 ft 0 kts 161°
2026-05-07 11:27 22.29866 113.92124 41 ft 2 kts 161°
2026-05-07 11:27 22.29863 113.92126 41 ft 0 kts 161°
2026-05-07 11:54 22.29879 113.92120 41 ft 4 kts 172°
2026-05-07 11:55 22.29905 113.92119 41 ft 4 kts 190°
2026-05-07 11:55 22.29930 113.92126 41 ft 4 kts 208°
2026-05-07 11:55 22.29951 113.92141 41 ft 4 kts 222°
2026-05-07 11:55 22.29970 113.92162 41 ft 4 kts 234°
2026-05-07 11:56 22.29984 113.92186 41 ft 4 kts 246°
2026-05-07 11:56 22.29989 113.92199 41 ft 0 kts 251°
2026-05-07 12:01 22.29989 113.92198 41 ft 1 kts 250°
2026-05-07 12:01 22.29985 113.92185 41 ft 2 kts 250°
2026-05-07 12:01 22.29981 113.92173 41 ft 2 kts 250°
2026-05-07 12:01 22.29977 113.92162 41 ft 1 kts 249°
2026-05-07 12:02 22.29973 113.92152 41 ft 1 kts 250°
2026-05-07 12:02 22.29971 113.92144 41 ft 1 kts 253°
2026-05-07 12:02 22.29969 113.92137 41 ft 1 kts 258°
2026-05-07 12:02 22.29968 113.92126 41 ft 3 kts 266°
2026-05-07 12:03 22.29973 113.92099 41 ft 4 kts 300°
2026-05-07 12:03 22.29981 113.92089 41 ft 2 kts 316°
2026-05-07 12:03 22.30000 113.92077 41 ft 4 kts 335°
2026-05-07 12:03 22.30039 113.92061 41 ft 8 kts 341°
2026-05-07 12:04 22.30094 113.92041 41 ft 6 kts 340°
2026-05-07 12:04 22.30128 113.92002 41 ft 10 kts 285°
2026-05-07 12:04 22.30124 113.91938 41 ft 7 kts 253°
2026-05-07 12:04 22.30106 113.91887 41 ft 8 kts 251°
2026-05-07 12:05 22.30088 113.91829 41 ft 8 kts 251°
2026-05-07 12:05 22.30069 113.91773 41 ft 8 kts 250°
2026-05-07 12:05 22.30050 113.91712 41 ft 11 kts 251°
2026-05-07 12:05 22.30019 113.91612 41 ft 14 kts 251°
2026-05-07 12:06 22.29987 113.91511 41 ft 13 kts 251°
2026-05-07 12:06 22.29957 113.91420 41 ft 13 kts 250°
2026-05-07 12:06 22.29928 113.91331 41 ft 12 kts 251°
2026-05-07 12:06 22.29900 113.91245 41 ft 12 kts 251°
2026-05-07 12:07 22.29871 113.91156 41 ft 16 kts 251°
2026-05-07 12:07 22.29828 113.91023 41 ft 19 kts 250°
2026-05-07 12:07 22.29785 113.90892 41 ft 18 kts 250°
2026-05-07 12:07 22.29741 113.90758 41 ft 22 kts 250°
2026-05-07 12:08 22.29694 113.90603 41 ft 21 kts 251°
2026-05-07 12:08 22.29647 113.90455 41 ft 20 kts 251°
2026-05-07 12:08 22.29601 113.90313 41 ft 19 kts 250°
2026-05-07 12:08 22.29556 113.90179 41 ft 18 kts 250°
2026-05-07 12:09 22.29518 113.90064 41 ft 14 kts 251°
2026-05-07 12:09 22.29487 113.89967 41 ft 13 kts 251°
2026-05-07 12:09 22.29497 113.89876 41 ft 13 kts 309°
2026-05-07 12:09 22.29571 113.89834 41 ft 12 kts 354°
2026-05-07 12:10 22.29632 113.89864 41 ft 7 kts 58°
2026-05-07 12:10 22.29639 113.89880 41 ft 0 kts 69°
2026-05-07 12:10 22.29652 113.89917 41 ft 21 kts 69°
2026-05-07 12:10 22.29766 113.90262 41 ft 77 kts 72°
2026-05-07 12:11 22.30003 113.91001 41 ft 131 kts 70°
2026-05-07 12:11 22.30360 113.92108 43 ft 180 kts 70°
2026-05-07 12:11 22.30820 113.93459 330 ft 195 kts 70°
2026-05-07 12:11 22.31303 113.94808 1054 ft 191 kts 71°
2026-05-07 12:12 22.31763 113.96188 1613 ft 198 kts 72°
2026-05-07 12:12 22.32211 113.97583 2292 ft 195 kts 73°
2026-05-07 12:12 22.32606 113.98995 2833 ft 198 kts 77°
2026-05-07 12:12 22.32998 114.00433 3344 ft 203 kts 75°
2026-05-07 12:13 22.33470 114.01925 3609 ft 214 kts 76°
2026-05-07 12:13 22.33791 114.03513 3874 ft 219 kts 86°
2026-05-07 12:13 22.33711 114.05162 4076 ft 221 kts 104°
2026-05-07 12:13 22.33115 114.06694 4263 ft 222 kts 122°
2026-05-07 12:14 22.32240 114.07769 4442 ft 222 kts 138°
2026-05-07 12:14 22.30895 114.08638 4539 ft 230 kts 156°
2026-05-07 12:14 22.29317 114.09043 4754 ft 238 kts 173°
2026-05-07 12:14 22.27657 114.08816 4986 ft 245 kts 188°
2026-05-07 12:15 22.25926 114.08570 5136 ft 258 kts 180°
2026-05-07 12:15 22.24110 114.08551 5494 ft 265 kts 178°
2026-05-07 12:15 22.22241 114.08599 5910 ft 270 kts 178°
2026-05-07 12:15 22.20345 114.08633 6434 ft 275 kts 180°
2026-05-07 12:16 22.18450 114.08659 7008 ft 278 kts 175°
2026-05-07 12:16 22.16522 114.08941 7560 ft 281 kts 175°
2026-05-07 12:16 22.14564 114.09096 8113 ft 284 kts 178°
2026-05-07 12:16 22.12575 114.09167 8660 ft 287 kts 180°
2026-05-07 12:17 22.10565 114.09187 9188 ft 290 kts 181°
2026-05-07 12:17 22.08540 114.09177 9710 ft 293 kts 181°
2026-05-07 12:17 22.06487 114.09161 10164 ft 299 kts 181°
2026-05-07 12:17 22.04363 114.09143 10418 ft 313 kts 182°
2026-05-07 12:18 22.02127 114.09125 10541 ft 330 kts 182°
2026-05-07 12:18 21.99773 114.09107 10658 ft 347 kts 182°
2026-05-07 12:18 21.97299 114.09088 10777 ft 364 kts 182°
2026-05-07 12:18 21.94711 114.09068 10895 ft 380 kts 182°
2026-05-07 12:19 21.92005 114.09048 11005 ft 397 kts 182°
2026-05-07 12:19 21.89181 114.09027 11112 ft 413 kts 182°
2026-05-07 12:19 21.86273 114.09005 11404 ft 422 kts 182°
2026-05-07 12:19 21.83309 114.08983 11799 ft 429 kts 182°
2026-05-07 12:20 21.80304 114.08961 12227 ft 435 kts 182°
2026-05-07 12:20 21.77258 114.08938 12682 ft 439 kts 182°
2026-05-07 12:20 21.74193 114.08916 13164 ft 442 kts 182°
2026-05-07 12:20 21.71138 114.08893 13647 ft 445 kts 182°
2026-05-07 12:21 21.68029 114.08870 14120 ft 448 kts 182°
2026-05-07 12:21 21.64899 114.08729 14582 ft 450 kts 188°
2026-05-07 12:21 21.61801 114.08219 15031 ft 452 kts 193°
2026-05-07 12:21 21.58734 114.07460 15469 ft 454 kts 196°